Flag for Philippines Weather past 2 weeks in Makati, Philippines

Now
81 °F

More clouds than sun.


Feels Like: 87 °F
Forecast: 80 / 88 °F
Wind: 5 mph from Northwest

Location: National Airport

Current Time: Aug 29, 2014 at 10:03:41 AM

Latest Report: Aug 29, 2014 at 9:00 AM


Visibility: 6 mi

Pressure: 29.86 "Hg

Humidity: 89%

Dew point: 77 °F

Location of MakatiLocation

Historic Weather in Makati — Graph

°F

Makati temperature yesterday

Maximum temperature yesterday: 82 °F (at 12:00 AM)
Minimum temperature yesterday: 77 °F (at 2:00 PM)
Average temperature yesterday: 79 °F

Past Weeks' High & Low Weather Summary

 TemperatureHumidityPressure
High95 °F (Aug 19, 2:00 PM)100% (Aug 16, 7:00 PM)29.92 "Hg (Aug 16, 7:00 PM)
Low70 °F (Aug 21, 5:00 PM)44% (Aug 19, 1:00 PM)29.71 "Hg (Aug 16, 2:00 PM)
Average83 °F84%29.82 "Hg
* Reported Aug 14 8:00 AM — Aug 29 8:00 AM, Makati, Weather by CustomWeather, © 2014

Note: Actual official high and low records may vary slightly from our data, if they occured in-between our weather recording intervals... More about our weather records

Advertising

Makati weather history for previous 24 hours

 ConditionsComfort  
Time TempWeatherWind HumidityBarometerVisibility
8:00 AM
Aug 29
79 °FBroken clouds.2 mph94%29.83 "HgN/A
7:00 AM77 °FSprinkles. Broken clouds.2 mph100%29.83 "Hg5 mi
6:00 AM75 °FScattered clouds.6 mph100%29.83 "Hg5 mi
5:00 AM75 °FPassing clouds.6 mph100%29.83 "HgN/A
4:00 AM75 °FPartly cloudy.7 mph100%29.83 "HgN/A
3:00 AM77 °FPartly cloudy.5 mph100%29.83 "HgN/A
2:00 AM77 °FPartly cloudy.5 mph94%29.83 "HgN/A
1:00 AM77 °FPartly cloudy.5 mph94%29.86 "HgN/A
12:00 AM77 °FPartly cloudy.2 mph94%29.86 "HgN/A
11:00 PM
Aug 28
77 °FPassing clouds.6 mph94%29.86 "HgN/A
10:00 PM77 °FPassing clouds.5 mph94%29.86 "HgN/A
9:00 PM79 °FPassing clouds.6 mph84%29.86 "HgN/A
8:00 PM77 °FPassing clouds.1 mph89%29.86 "HgN/A
7:00 PM79 °FMostly cloudy.3 mph79%29.83 "HgN/A
6:00 PM79 °FMore clouds than sun.6 mph84%29.83 "HgN/A
5:00 PM79 °FMore clouds than sun.3 mph89%29.80 "HgN/A
4:00 PM79 °FMore clouds than sun.6 mph89%29.77 "HgN/A
3:00 PM79 °FLight rain. More clouds than sun.5 mph84%29.80 "Hg6 mi
2:00 PM77 °FRain. More clouds than sun.3 mph100%29.83 "HgN/A
1:00 PM79 °FLight rain. More clouds than sun.5 mph100%29.86 "HgN/A
12:00 PM79 °FLight rain. Broken clouds.5 mph94%29.86 "HgN/A
11:00 AM81 °FBroken clouds.3 mph89%29.89 "HgN/A
10:00 AM81 °FBroken clouds.6 mph89%29.89 "Hg6 mi
Weather by CustomWeather, © 2014

See weather overviewHow to use our weather pages